Location: Amsterdam
(30.7274°N, 84.4357°W)
Time: 16:36:13
(UTC+00:00)

Injun/Solrad 3 - Pass Details

Date: 27 February 2026
Orbit: 871 x 985 km, 66.8° (Epoch: 11 March)

Event Time Altitude Azimuth Distance (km) Brightness Sun altitude
Rises 14:13:00 0° 206° (SSW) 3,443 10.9 25.0°
Reaches altitude 10° 14:15:28 10° 207° (SSW) 2,508 10.3 25.5°
Maximum altitude 14:21:15 82° 294° (WNW) 888 8.2 26.6°
Drops below altitude 10° 14:27:10 10° 23° (NNE) 2,553 10.2 27.7°
Sets 14:29:41 0° 24° (NNE) 3,509 10.9 28.2°
